Location: Poitiers
(46.5657°N, 0.3938°E)
Time: 04:00:27
(UTC+02:00)

ISS - Visible Passes

Search period start: 01 July 2022 00:00
Search period end: 11 July 2022 00:00
Orbit: 414 x 420 km, 51.6° (Epoch: 30 June)

Date Brightness Start Highest point End Pass type
(mag) Time Alt. Az. Time Alt. Az. Time Alt. Az.
01 Jul -1.6 03:22:08 16° ESE 03:22:08 16° ESE 03:23:46 10° E visible
01 Jul -3.8 04:55:02 14° WSW 04:57:55 89° NNW 05:01:17 10° ENE visible
02 Jul -3.7 04:08:28 33° SW 04:09:45 61° SSE 04:13:05 10° ENE visible
03 Jul -3.0 03:21:51 38° SE 03:21:51 38° SE 03:24:47 10° ENE visible
03 Jul -2.9 04:55:05 10° W 04:58:21 49° NNW 05:01:39 10° ENE visible
04 Jul -1.6 02:35:10 17° E 02:35:10 17° E 02:36:20 10° E visible
04 Jul -3.5 04:08:04 22° W 04:10:05 65° NNW 04:13:27 10° ENE visible
05 Jul -3.9 03:21:19 62° WSW 03:21:50 88° SSE 03:25:12 10° ENE visible
05 Jul -2.2 04:55:42 10° WNW 04:58:51 35° N 05:02:00 10° ENE visible
06 Jul -2.9 02:34:31 40° E 02:34:31 40° E 02:36:56 10° ENE visible
06 Jul -2.5 04:07:24 11° W 04:10:30 40° NNW 04:13:42 10° ENE visible
07 Jul -1.5 01:47:39 16° E 01:47:39 16° E 01:48:34 10° ENE visible
07 Jul -3.0 03:20:31 25° W 03:22:08 50° NNW 03:25:26 10° ENE visible
07 Jul -2.0 04:56:15 10° WNW 04:59:20 33° N 05:02:26 10° ENE visible
08 Jul -3.5 02:33:32 63° WNW 02:33:48 68° NNW 02:37:10 10° ENE visible
08 Jul -2.0 04:07:50 10° WNW 04:10:56 33° N 04:14:02 10° ENE visible
09 Jul -3.0 01:46:26 45° ENE 01:46:26 45° ENE 01:48:52 10° ENE visible
09 Jul -2.2 03:19:22 10° WNW 03:22:30 35° N 03:25:39 10° ENE visible
09 Jul -2.2 04:56:34 10° WNW 04:59:45 39° NNE 05:02:57 10° E visible
10 Jul -2.0 00:59:06 23° ENE 00:59:06 23° ENE 01:00:32 10° ENE visible
10 Jul -2.5 02:31:56 18° WNW 02:34:05 41° NNW 02:37:18 10° ENE visible
10 Jul -2.0 04:08:12 10° WNW 04:11:19 34° N 04:14:27 10° ENE visible
